This is the latest recevied weather packets stored in our database for station/object WZ8H. If no packets are shown the sender has not sent any weather packets the latest 10 day(s).
| Time | Temp. | Humidity | Pressure | Rain* | Wind** | Luminosity | Snow |
|---|---|---|---|---|---|---|---|
| 1778009607 | 12.78° C | 92% | 1007.3 hPa | 3.3 mm | - | 40 W/m² | - |
| 1778009305 | 13.33° C | 92% | 1007.1 hPa | 3.56 mm | - | 40 W/m² | - |
| 1778009002 | 13.33° C | 93% | 1007 hPa | 3.56 mm | - | 77 W/m² | - |
| 1778008677 | 13.33° C | 92% | 1007 hPa | 3.56 mm | - | 53 W/m² | - |
| 1778008372 | 13.33° C | 92% | 1006.9 hPa | 3.81 mm | - | 58 W/m² | - |
| 1778008047 | 13.33° C | 92% | 1007 hPa | 3.56 mm | - | 65 W/m² | - |
| 1778007746 | 13.33° C | 92% | 1007 hPa | 3.05 mm | - | 37 W/m² | - |
| 1778007434 | 13.33° C | 92% | 1006.8 hPa | 3.05 mm | - | 65 W/m² | - |
| 1778007131 | 13.33° C | 91% | 1006.8 hPa | 2.79 mm | - | 40 W/m² | - |
| 1778006802 | 13.89° C | 91% | 1006.8 hPa | 2.54 mm | - | 79 W/m² | - |
| 1778006503 | 13.89° C | 91% | 1006.8 hPa | 2.29 mm | - | 63 W/m² | - |
| 1778006207 | 13.89° C | 90% | 1006.7 hPa | 2.03 mm | - | 76 W/m² | - |
| 1778005900 | 13.89° C | 90% | 1006.7 hPa | 1.78 mm | - | 69 W/m² | - |
| 1778005604 | 13.89° C | 89% | 1006.8 hPa | 1.27 mm | - | 79 W/m² | - |
| 1778005297 | 14.44° C | 89% | 1006.5 hPa | 1.02 mm | - | 79 W/m² | - |
| 1778005001 | 14.44° C | 88% | 1006.5 hPa | 0.76 mm | - | 76 W/m² | - |
| 1778004673 | 14.44° C | 88% | 1006.5 hPa | 0.51 mm | - | 63 W/m² | - |
| 1778004371 | 15° C | 87% | 1006.5 hPa | 0.25 mm | - | 65 W/m² | - |
| 1778004044 | 15° C | 86% | 1006.6 hPa | 0 mm | - | 81 W/m² | - |
| 1778003716 | 15° C | 85% | 1006.5 hPa | 0 mm | - | 72 W/m² | - |
| 1778003415 | 15° C | 85% | 1006.6 hPa | 0 mm | - | 56 W/m² | - |
| 1778003116 | 15.56° C | 84% | 1006.5 hPa | 0 mm | - | 69 W/m² | - |
| 1778002784 | 15.56° C | 83% | 1006.5 hPa | 0 mm | - | 72 W/m² | - |
| 1778002488 | 15.56° C | 83% | 1006.5 hPa | 0 mm | - | 65 W/m² | - |
| 1778002157 | 15.56° C | 83% | 1006.5 hPa | 0 mm | - | 46 W/m² | - |
* Rain latest hour (hover to see other rain measurements)
** Current wind speed in m/s (hover to see current wind gust speed)